Location: Dammartin
(48.9032°N, 1.6195°E)
Time: 13:06:27
(UTC+00:00)

BlueWalker 3 - Visible Passes

Search period start: 16 April 2024 00:00
Search period end: 26 April 2024 00:00
Orbit: 485 x 496 km, 53.2° (Epoch: 16 April)

Date Brightness Start Highest point End Pass type
(mag) Time Alt. Az. Time Alt. Az. Time Alt. Az.
16 Apr 1.8 02:46:58 63° SSW 02:46:58 63° SSW 02:50:42 10° SE visible
16 Apr 3.8 04:22:43 10° WSW 04:24:33 13° SW 04:26:22 10° SSW visible
16 Apr 3.6 19:47:03 10° SSE 19:49:12 15° SE 19:49:28 15° SE visible
16 Apr 4.0 21:23:05 10° SW 21:24:04 17° SW 21:24:04 17° SW visible
17 Apr 3.9 02:25:07 18° SE 02:25:07 18° SE 02:26:11 10° SE visible
17 Apr 3.6 03:59:41 14° SW 04:00:02 14° SW 04:01:59 10° SSW visible
17 Apr 3.7 19:22:39 10° SSE 19:24:41 14° SE 19:26:42 10° E visible
17 Apr 1.8 20:58:32 10° SW 21:02:20 66° SSE 21:02:46 60° ESE visible
17 Apr 4.7 22:37:00 10° W 22:37:18 12° W 22:37:18 12° W visible
18 Apr 1.8 20:33:59 10° SW 20:37:45 64° SSE 20:40:38 17° ENE visible
18 Apr 3.2 22:12:24 10° W 22:15:08 37° NW 22:15:08 37° NW visible
19 Apr 1.9 20:09:24 10° SW 20:13:10 61° SSE 20:16:57 10° ENE visible
19 Apr 2.8 21:47:48 10° W 21:51:31 49° NNW 21:52:19 41° NNE visible
19 Apr 4.8 23:26:31 10° WNW 23:26:47 12° WNW 23:26:47 12° WNW visible
20 Apr 1.9 19:44:48 10° SW 19:48:33 59° SSE 19:52:20 10° ENE visible
20 Apr 2.8 21:23:10 10° W 21:26:54 49° NNW 21:29:04 22° NE visible
20 Apr 4.1 23:01:53 10° WNW 23:03:31 22° NW 23:03:31 22° NW visible
21 Apr 2.7 20:58:31 10° W 21:02:15 50° NNW 21:05:33 13° ENE visible
21 Apr 3.4 22:37:14 10° WNW 22:40:00 36° NNW 22:40:00 36° NNW visible
22 Apr 2.7 20:33:50 10° W 20:37:35 51° NNW 20:41:20 10° ENE visible
22 Apr 2.9 22:12:34 10° WNW 22:16:16 44° N 22:16:18 44° N visible
23 Apr 2.7 20:09:09 10° W 20:12:53 52° NNW 20:16:39 10° ENE visible
23 Apr 2.9 21:47:53 10° WNW 21:51:35 44° N 21:52:30 36° NE visible
23 Apr 4.5 23:26:12 10° WNW 23:26:54 15° WNW 23:26:54 15° WNW visible
24 Apr 2.7 19:44:26 10° W 19:48:11 53° NNW 19:51:56 10° ENE visible
24 Apr 2.9 21:23:10 10° WNW 21:26:52 44° N 21:28:37 26° ENE visible
24 Apr 4.0 23:01:31 10° WNW 23:03:02 23° WNW 23:03:02 23° WNW visible
25 Apr 2.9 20:58:27 10° WNW 21:02:08 43° N 21:04:43 17° ENE visible
25 Apr 3.3 22:36:47 10° WNW 22:39:07 35° WNW 22:39:07 35° WNW visible
